Location: Hains Lake
(37.8540°N, 99.8578°W)
Time: 16:38:39
(UTC+00:00)

Vanguard 1 - Pass Details

Date: 01 December 2021
Orbit: 652 x 3830 km, 34.2° (Epoch: 22 January)

Event Time Altitude Azimuth Distance (km) Brightness Sun altitude
Rises 03:41:58 0° 190° (S) 6,618 14.3 -50.9°
Reaches altitude 10° 03:47:25 10° 177° (S) 6,049 13.9 -52.0°
Enters shadow 03:48:29 12° 175° (S) 5,961 13.8 -52.2°
